Weather History for Porto Alegre, Brazil

Change the Weather History Date:

Thursday, January 30, 2014

  Actual Average Record
Temperature  
Mean Temperature 86 °F -  
Max Temperature 98 °F 83 °F 98 °F (2014)
Min Temperature 75 °F 67 °F 64 °F (1999)
Cooling Degree Days 22    
Growing Degree Days 36 (Base 50)    
Moisture  
Dew Point 71 °F    
Average Humidity 68    
Maximum Humidity 94    
Minimum Humidity 22    
Precipitation  
Precipitation 0.24 in - - ()
Sea Level Pressure  
Sea Level Pressure 29.89 in    
Wind  
Wind Speed 8 mph ()    
Max Wind Speed 28 mph    
Max Gust Speed 45 mph    
Visibility 5.4 miles    
Events Rain , Thunderstorm    
Averages and records for this station are not official NWS values.
T = Trace of Precipitation, MM = Missing Value Source: Averaged Metar Reports

Daily Weather History Graph

Daily Weather History Graph

Search for Another Location

Airport:

Trip Planner

Search our weather history database for the weather conditions in past years. The results will help you decide how hot, cold, wet, or windy it might be!

Date:

Astronomy

Jan. 30, 2014 Rise Set
Actual Time 6:51 AM BRST 8:24 PM BRST
Civil Twilight 6:25 AM BRST 8:49 PM BRST
Nautical Twilight 5:54 AM BRST 9:20 PM BRST
Astronomical Twilight 5:22 AM BRST 9:53 PM BRST
Moon 6:27 AM BRST (1/30) 8:02 PM BRST (1/30)
Length of Visible Light 14h 24m
Length of Day
13h 32m
Waning Crescent, 0% of the Moon is Illuminated
Jan 30
Waning Crescent
Jan 30
New
Feb 6
First Quarter
Feb 14
Full
Feb 22
Last Quarter

Hourly Weather History & Observations

Time (BRST) Temp. Heat Index Dew Point Humidity Pressure Visibility Wind Dir Wind Speed Gust Speed Precip Events Conditions
12:00 AM 80.6 °F 86.2 °F 75.2 °F 84% 29.98 in 6.2 mi ESE 10.4 mph - N/A   Partly Cloudy
1:00 AM 78.8 °F - 75.2 °F 89% 29.98 in 6.2 mi East 6.9 mph - N/A   Scattered Clouds
2:00 AM 78.8 °F - 75.2 °F 89% 29.95 in 5.0 mi ESE 9.2 mph - N/A   Partly Cloudy
3:00 AM 78.8 °F - 77.0 °F 94% 29.92 in 4.3 mi ENE 6.9 mph - N/A   Mostly Cloudy
4:00 AM 78 °F - 75 °F 87% 29.92 in 4 mi NE 3.5 mph - -   Mist
4:00 AM 78.8 °F - 75.2 °F 89% 29.92 in 3.7 mi NE 3.5 mph - N/A   Partly Cloudy
5:00 AM 77.0 °F - 73.4 °F 89% 29.89 in 3.1 mi East 6.9 mph - N/A   Mist
6:00 AM 77.0 °F - 73.4 °F 89% 29.89 in 4.3 mi Variable 1.2 mph - N/A   Unknown
7:00 AM 77.0 °F - 73.4 °F 89% 29.89 in - NE 3.5 mph - N/A   Clear
8:00 AM 78.8 °F - 73.4 °F 83% 29.92 in - East 3.5 mph - N/A   Clear
9:00 AM 82.4 °F 88.2 °F 73.4 °F 74% 29.92 in - East 2.3 mph - N/A   Clear
10:00 AM 87 °F - 72 °F 54% 29.93 in 12 mi SE 2.3 mph - -  
10:00 AM 86.0 °F 93.4 °F 73.4 °F 66% 29.92 in - SE 2.3 mph - N/A   Clear
11:00 AM 89.6 °F 96.2 °F 71.6 °F 55% 29.92 in - NE 5.8 mph - N/A   Clear
12:00 PM 93.2 °F 100.5 °F 71.6 °F 49% 29.89 in - NNW 10.4 mph - N/A   Clear
1:00 PM 93.2 °F 102.4 °F 73.4 °F 52% 29.89 in - NNW 9.2 mph - N/A   Clear
2:00 PM 95.0 °F 104.5 °F 73.4 °F 49% 29.86 in - WNW 11.5 mph - N/A   Clear
3:00 PM 96.8 °F 109.6 °F 75.2 °F 50% 29.86 in 6.2 mi West 10.4 mph - N/A   Partly Cloudy
4:00 PM 97 °F - 73 °F 36% 29.83 in 12 mi West 8.1 mph - -   Scattered Clouds
4:00 PM 96.8 °F 107.3 °F 73.4 °F 47% 29.83 in 6.2 mi West 8.1 mph - N/A   Partly Cloudy
5:00 PM 98.6 °F 105.5 °F 69.8 °F 39% 29.80 in 6.2 mi West 8.1 mph - N/A   Partly Cloudy
6:00 PM 96.8 °F 103.1 °F 69.8 °F 41% 29.80 in 6.2 mi WSW 11.5 mph - N/A Thunderstorm Partly Cloudy
6:09 PM 91.4 °F 93.2 °F 64.4 °F 41% 29.80 in 6.2 mi WSW 17.3 mph 36.8 mph N/A Thunderstorm Partly Cloudy
6:28 PM 84.2 °F 87.3 °F 68.0 °F 58% 29.83 in 2.5 mi West 19.6 mph 33.4 mph N/A Rain , Thunderstorm Thunderstorms and Rain
6:49 PM 75.2 °F - 69.8 °F 83% 29.86 in 2.5 mi NW 27.6 mph 44.9 mph N/A Rain , Thunderstorm Light Thunderstorms and Rain
7:00 PM 75.2 °F - 69.8 °F 83% 29.86 in 2.5 mi NW 27.6 mph 44.9 mph N/A Rain , Thunderstorm Light Thunderstorms and Rain
7:18 PM 75.2 °F - 68.0 °F 78% 29.89 in 2.5 mi NW 23.0 mph 36.8 mph N/A Rain , Thunderstorm Thunderstorms and Rain
7:30 PM 75.2 °F - 68.0 °F 78% 29.86 in 1.1 mi WNW 18.4 mph 32.2 mph N/A Rain , Thunderstorm Heavy Thunderstorms and Rain
7:45 PM - - - N/A% 29.86 in 2.8 mi West 17.3 mph - N/A Rain , Thunderstorm Light Thunderstorms and Rain
8:00 PM 77.0 °F - 35.6 °F 22% 29.86 in 4.3 mi West 12.7 mph - N/A Thunderstorm Thunderstorm
9:00 PM 78.8 °F - - N/A% 29.89 in 5.0 mi South 5.8 mph - N/A Thunderstorm Thunderstorm
10:00 PM 76 °F - 68 °F 71% 29.91 in 12 mi East 13.8 mph - - Thunderstorm Thunderstorm
10:00 PM 77.0 °F - 68.0 °F 74% 29.89 in 6.2 mi East 13.8 mph - N/A Thunderstorm Thunderstorm
11:00 PM 75.2 °F - 69.8 °F 83% 29.92 in 6.2 mi East 9.2 mph - N/A Thunderstorm Thunderstorm